TimeCST,TemperatureF,Dew PointF,Humidity,Sea Level PressureIn,VisibilityMPH,Wind Direction,Wind SpeedMPH,Gust SpeedMPH,PrecipitationIn,Events,Conditions,WindDirDegrees,DateUTC
12:53 AM,14.0,10.9,88,30.40,10.0,West,4.6,-,N/A,,Clear,260,2013-02-16 06:53:00
1:53 AM,12.0,10.0,92,30.38,10.0,SW,3.5,-,N/A,,Clear,230,2013-02-16 07:53:00
2:53 AM,12.9,9.0,84,30.35,10.0,Calm,Calm,-,N/A,,Clear,0,2013-02-16 08:53:00
3:53 AM,15.1,10.9,84,30.32,10.0,Calm,Calm,-,N/A,,Partly Cloudy,0,2013-02-16 09:53:00
4:53 AM,16.0,10.9,81,30.30,10.0,SW,4.6,-,N/A,,Partly Cloudy,230,2013-02-16 10:53:00
5:53 AM,19.4,12.2,74,30.18,10.0,SSW,8.1,-,N/A,,Overcast,200,2013-02-16 11:53:00
6:53 AM,19.9,14.0,78,30.23,10.0,South,6.9,-,N/A,,Overcast,190,2013-02-16 12:53:00
7:53 AM,21.9,14.0,72,30.21,9.0,SSW,8.1,-,N/A,,Overcast,200,2013-02-16 13:53:00
8:10 AM,21.2,15.8,80,30.12,2.0,South,10.4,-,0.00,Snow,Light Snow,190,2013-02-16 14:10:00
8:17 AM,21.2,15.8,80,30.11,1.5,South,8.1,-,0.00,Snow,Light Snow,190,2013-02-16 14:17:00
8:24 AM,21.2,15.8,80,30.11,3.0,South,10.4,-,0.00,Snow,Light Snow,190,2013-02-16 14:24:00
8:43 AM,21.2,17.6,86,30.09,1.8,South,11.5,17.3,0.00,Snow,Light Snow,180,2013-02-16 14:43:00
8:53 AM,21.9,18.0,85,30.18,1.5,South,6.9,-,0.00,Snow,Light Snow,180,2013-02-16 14:53:00
9:07 AM,21.2,19.4,93,30.08,3.0,South,11.5,-,0.00,Snow,Light Snow,170,2013-02-16 15:07:00
9:53 AM,25.0,19.0,78,30.17,10.0,South,10.4,-,0.00,,Overcast,170,2013-02-16 15:53:00
10:53 AM,28.0,18.0,66,30.14,10.0,South,10.4,-,N/A,,Overcast,190,2013-02-16 16:53:00
11:53 AM,35.1,21.0,57,30.10,10.0,SW,12.7,18.4,N/A,,Overcast,220,2013-02-16 17:53:00
12:53 PM,39.0,21.0,49,30.07,10.0,SW,9.2,16.1,N/A,,Scattered Clouds,220,2013-02-16 18:53:00
1:53 PM,45.0,24.1,44,30.04,10.0,WNW,12.7,18.4,N/A,,Clear,300,2013-02-16 19:53:00
2:13 PM,46.4,24.8,43,29.97,10.0,NW,13.8,20.7,N/A,,Scattered Clouds,320,2013-02-16 20:13:00
2:53 PM,48.9,26.1,41,30.01,10.0,NW,6.9,-,N/A,,Clear,320,2013-02-16 20:53:00
3:53 PM,51.1,27.0,39,30.00,10.0,NW,10.4,-,N/A,,Scattered Clouds,310,2013-02-16 21:53:00
4:53 PM,51.1,27.0,39,29.99,10.0,North,5.8,-,N/A,,Clear,360,2013-02-16 22:53:00
5:53 PM,46.0,28.9,51,30.00,10.0,NNW,10.4,-,N/A,,Clear,330,2013-02-16 23:53:00
6:53 PM,37.9,27.0,65,30.01,10.0,NNW,5.8,-,N/A,,Clear,340,2013-02-17 00:53:00
7:53 PM,35.1,26.1,70,30.01,10.0,Calm,Calm,-,N/A,,Clear,0,2013-02-17 01:53:00
8:53 PM,34.0,26.1,73,30.01,10.0,Calm,Calm,-,N/A,,Clear,0,2013-02-17 02:53:00
9:53 PM,28.9,24.1,82,30.01,10.0,Calm,Calm,-,N/A,,Clear,0,2013-02-17 03:53:00
10:53 PM,28.0,24.1,85,30.00,10.0,Calm,Calm,-,N/A,,Clear,0,2013-02-17 04:53:00
11:53 PM,27.0,24.1,89,29.99,10.0,Calm,Calm,-,N/A,,Clear,0,2013-02-17 05:53:00